Wind_Speed
28 26 24 22 20 19 19 19 19 18 17 14 12 10 8 7 4 2 2 3 5 5 7 8 10 12 13 14 14 13 13 12
26 25 26 25 23 22 22 21 20 19 17 16 14 11 9 6 4 2 0 1 3 4 5 7 10 12 13 13 14 14 14 13
28 27 27 25 24 24 24 22 21 20 19 16 14 12 9 6 4 2 1 2 3 5 7 9 11 12 13 14 14 14 14 13
32 31 29 27 26 26 24 23 22 21 18 16 14 11 9 7 5 3 1 1 4 6 8 8 9 10 11 12 12 13 13 13
35 32 30 29 28 26 25 23 22 19 18 16 14 12 10 8 6 4 1 2 4 5 6 6 7 10 12 12 12 12 12 12
35 33 32 30 28 27 26 24 22 19 18 17 14 12 10 9 6 3 2 2 4 4 5 8 10 9 9 9 9 9 9 7
37 35 32 31 30 28 27 25 23 21 19 16 13 12 11 9 6 5 4 4 3 4 6 7 7 6 6 6 6 5 5 5
39 37 34 32 31 29 27 25 22 21 19 17 15 13 12 10 7 6 5 4 1 3 6 5 5 5 5 5 5 4 4 4
42 39 36 34 32 30 28 26 24 21 19 18 17 15 13 10 9 7 4 1 2 4 4 5 6 6 5 4 4 4 5 5
41 41 40 37 34 31 29 26 22 21 20 19 18 16 13 11 9 7 4 3 2 3 4 5 5 3 3 2 3 4 5 6
43 43 41 38 35 31 29 26 23 21 20 19 18 16 14 11 10 7 4 3 2 1 2 2 1 1 1 1 2 3 4 5
44 43 42 39 36 33 30 27 24 22 22 21 19 17 14 12 10 8 6 4 3 2 1 0 0 2 2 2 2 3 4 6
48 47 45 42 40 38 35 33 28 25 24 22 20 18 17 14 11 8 6 5 3 3 1 1 1 3 4 4 5 4 4 5
50 50 48 46 42 40 38 34 30 25 25 24 22 20 18 14 11 9 7 5 4 3 3 3 3 4 5 6 5 6 4 3
53 52 49 46 43 43 38 33 29 30 29 26 24 22 19 15 12 9 6 6 5 4 4 5 4 5 5 6 4 4 6 4
52 53 52 48 47 46 40 35 35 34 31 28 26 22 18 16 12 10 8 6 5 4 4 3 4 4 4 4 3 4 4 4
55 54 54 52 50 45 39 36 34 31 30 29 26 23 20 16 13 11 9 8 6 4 3 2 3 4 4 4 3 1 1 3
55 56 56 56 53 48 42 38 38 39 37 33 30 25 21 18 16 13 11 9 7 5 4 4 4 4 4 3 2 2 1 2
55 57 58 58 54 50 43 38 38 40 36 33 30 26 23 20 17 14 12 9 9 7 6 4 3 3 4 4 3 2 1 2
54 56 60 60 57 44 41 37 38 39 34 33 29 26 23 20 18 15 13 11 10 8 6 4 4 3 3 4 3 2 2 3
Wind_Direction
195 193 192 191 190 190 189 188 186 183 184 190 193 194 198 200 204 224 285 340 354 357 355 352 346 343 340 337 334 332 330 327
203 196 193 191 190 190 191 190 189 190 197 198 198 199 202 202 209 210 276 346 16 359 353 348 344 339 334 330 326 325 325 325
206 200 197 192 192 192 191 192 195 199 200 199 200 206 207 203 206 208 209 27 10 358 349 344 339 334 328 324 323 321 320 320
202 201 198 194 193 195 195 197 201 201 201 203 207 208 203 200 197 203 189 2 352 343 337 336 333 328 327 326 323 322 322 323
205 200 197 197 197 198 200 200 202 202 204 206 208 204 199 198 194 191 200 325 331 318 318 330 344 344 336 330 327 324 321 317
205 202 201 199 200 202 203 203 203 205 207 207 207 204 197 197 192 190 216 270 279 288 340 353 343 334 325 318 317 315 315 317
204 204 203 201 200 203 203 204 205 206 209 209 205 201 201 200 201 211 231 249 259 351 344 336 332 325 325 322 323 324 329 333
203 204 204 203 202 203 206 207 208 207 206 207 203 201 204 206 209 215 223 237 348 328 320 325 332 341 339 341 345 344 344 347
206 203 204 205 205 204 206 208 208 208 208 206 204 204 207 209 212 214 226 243 297 313 330 356 8 357 344 348 342 340 343 345
207 206 205 204 206 206 207 207 207 208 208 206 203 204 206 210 209 209 207 227 286 328 5 18 7 333 326 322 312 313 322 332
207 207 205 203 204 206 206 207 206 206 206 205 204 203 205 211 215 210 205 211 208 62 45 9 308 245 240 258 303 325 341 357
211 207 205 204 204 203 205 205 205 205 207 206 205 205 204 209 215 209 198 188 153 124 110 229 220 229 224 241 265 313 336 334
211 208 206 205 204 203 203 204 204 206 205 205 205 203 205 208 209 211 197 174 152 150 184 211 193 215 234 247 258 286 320 342
212 210 208 207 210 209 210 205 205 208 205 202 202 203 206 207 205 207 193 173 166 185 196 202 215 225 243 241 239 247 258 328
212 209 208 209 210 210 208 207 207 205 204 204 202 203 203 202 202 200 190 184 187 201 209 208 205 200 213 224 207 208 197 220
213 210 209 209 212 211 210 211 212 210 207 201 201 201 201 202 198 201 198 193 201 212 216 204 196 198 198 213 216 219 188 174
212 209 208 209 209 211 209 215 220 222 210 205 200 203 200 200 199 204 201 202 207 211 223 209 198 188 195 197 194 195 310 177
211 208 208 210 208 208 209 214 214 213 208 203 200 200 201 197 201 203 206 206 210 213 222 221 195 169 171 167 167 193 154 63
213 208 207 210 206 205 211 213 217 214 208 206 202 200 202 202 202 204 209 205 211 214 215 219 209 168 150 162 172 164 105 37
213 208 206 209 207 202 207 214 217 215 212 209 206 208 203 201 203 205 206 205 215 217 210 217 221 198 174 166 158 137 56 45
Height
1485 1488 1493 1498 1502 1506 1508 1510 1512 1515 1516 1518 1519 1521 1522 1523 1523 1524 1525 1526 1526 1527 1528 1527 1527 1527 1526 1525 1523 1522 1522 1522
1487 1490 1491 1494 1499 1503 1506 1508 1511 1513 1514 1515 1516 1519 1520 1521 1523 1523 1525 1526 1527 1527 1527 1527 1527 1526 1525 1524 1522 1522 1521 1521
1486 1488 1492 1494 1498 1501 1502 1505 1508 1510 1511 1513 1515 1517 1518 1520 1522 1523 1524 1525 1526 1526 1525 1525 1525 1524 1523 1522 1522 1521 1520 1519
1481 1485 1489 1493 1496 1499 1502 1504 1506 1508 1509 1512 1514 1516 1517 1519 1520 1522 1523 1523 1524 1524 1524 1525 1525 1523 1522 1521 1520 1520 1519 1518
1479 1483 1486 1489 1493 1496 1500 1502 1505 1508 1510 1511 1513 1514 1516 1517 1518 1520 1521 1522 1523 1523 1524 1524 1524 1522 1521 1521 1520 1519 1518 1517
1478 1482 1484 1487 1491 1493 1496 1500 1503 1506 1509 1510 1511 1513 1515 1516 1517 1518 1519 1520 1521 1522 1522 1521 1522 1522 1521 1520 1519 1518 1517 1516
1475 1480 1483 1485 1488 1492 1494 1497 1499 1503 1506 1508 1511 1512 1513 1514 1516 1517 1518 1519 1519 1518 1519 1520 1520 1521 1520 1519 1518 1517 1516 1515
1470 1475 1480 1483 1485 1489 1492 1494 1498 1500 1503 1506 1508 1510 1511 1513 1514 1516 1518 1518 1516 1516 1517 1518 1518 1519 1518 1518 1518 1517 1516 1514
1464 1470 1476 1480 1483 1485 1487 1491 1494 1498 1501 1504 1505 1507 1509 1511 1513 1515 1516 1516 1515 1515 1515 1515 1516 1517 1518 1517 1517 1516 1515 1514
1462 1466 1469 1474 1480 1483 1485 1488 1493 1496 1499 1501 1503 1505 1508 1510 1511 1512 1513 1514 1514 1513 1512 1513 1515 1516 1516 1515 1515 1515 1515 1514
1457 1461 1465 1470 1475 1480 1482 1485 1489 1493 1496 1499 1501 1503 1506 1509 1510 1510 1511 1511 1512 1511 1511 1512 1514 1515 1514 1513 1513 1513 1513 1513
1453 1458 1462 1467 1471 1474 1479 1483 1485 1489 1493 1496 1498 1501 1503 1505 1509 1509 1509 1510 1509 1510 1511 1512 1513 1513 1513 1512 1511 1511 1512 1512
1444 1451 1456 1462 1465 1468 1473 1477 1482 1485 1489 1492 1496 1498 1500 1502 1504 1508 1508 1507 1508 1508 1510 1511 1511 1512 1512 1511 1511 1511 1511 1509
1437 1442 1449 1455 1461 1464 1469 1474 1479 1484 1486 1489 1492 1494 1498 1500 1501 1504 1505 1506 1506 1508 1509 1510 1510 1509 1510 1509 1510 1512 1511 1510
1425 1434 1444 1451 1458 1460 1465 1472 1477 1479 1482 1485 1489 1491 1494 1497 1499 1502 1502 1503 1504 1506 1508 1509 1507 1507 1508 1509 1507 1508 1509 1508
1420 1427 1434 1440 1448 1456 1459 1466 1470 1475 1479 1482 1485 1489 1492 1494 1496 1498 1499 1500 1502 1504 1506 1507 1506 1505 1505 1506 1505 1505 1506 1506
1409 1418 1426 1433 1438 1446 1453 1459 1464 1473 1479 1481 1482 1486 1488 1491 1493 1496 1497 1498 1499 1500 1504 1505 1506 1505 1504 1503 1503 1503 1503 1504
1401 1409 1415 1421 1427 1438 1446 1450 1457 1466 1470 1473 1476 1480 1485 1487 1491 1493 1495 1496 1497 1497 1499 1503 1504 1503 1502 1501 1502 1502 1502 1502
1398 1402 1410 1416 1420 1431 1443 1449 1455 1461 1465 1469 1473 1476 1481 1484 1487 1489 1494 1494 1495 1494 1496 1499 1501 1501 1500 1500 1501 1502 1501 1500
1392 1398 1402 1408 1414 1426 1435 1445 1453 1455 1459 1463 1467 1473 1476 1480 1484 1487 1491 1491 1495 1495 1493 1496 1499 1499 1498 1498 1499 1499 1499 1500